Content
SEND FEEDBACK

Daily
Averages
Monthly
Summary
Spain

SANTA CRUZ DE TENERIFE, SPAIN


Home > Europe > Spain
Elevation: 151 feet     Latitude: 28 27N     Longitude: 016 15W

WEATHER
 
SELECT A DAY
Number of Records: 210,007;   Date Range: 7/1/96 - 10/21/14
 
SHARE

PRINT THIS DATA

[ ← Previous Day ]
WEATHER ALMANAC - OCTOBER 22, 2013
[ Next Day → ]
[ °C ]   °F
Weather ElementAverageHighLow
Temperature68.1 °F73.4 °F (11:30 am)60.8 °F (6:30 am)
Dewpoint56.6 °F60.8 °F (12:00 pm)51.8 °F (6:30 am)
Humidity67.2 %83 % (8:00 pm)50 % (11:00 am)
Barometer30.08 in30.12 in (12:00 pm)30.06 in (6:30 am)
Wind Speed6.4 mph11.5 mph (4:00 pm)
Weather ElementAverage
Visibility6.2 mi
Wind DirectionSSW (197.2 °)

Weather ElementTotal
Precipitation---
Cooling Degree Days2.1 (Base 65)
Growing Degree Days17.1 (Base 50)
Averaged from 32 records on October 22, 2013
WEATHER CONDITIONS BREAKOUT
WIND DIRECTION BREAKOUT
WEATHER BY HOUR - OCTOBER 22, 2013
[ °C ]   °F
Local TimeTemperatureDewpointHumidityBarometerVisibilityWind DirectionWind SpeedGust SpeedPrecipitationEventsConditions
6:30 AM60.8 °F51.8 °F72 %30.06 inWest (270°)8.1 mphClear
7:00 AM60.8 °F51.8 °F72 %30.06 inWest (270°)6.9 mphClear
7:30 AM62.6 °F53.6 °F72 %30.06 inWest (260°)5.8 mphClear
8:00 AM60.8 °F51.8 °F72 %30.06 inWest (280°)9.2 mphClear
8:30 AM60.8 °F53.6 °F77 %30.06 inVariable2.3 mphClear
9:00 AM64.4 °F51.8 °F64 %30.06 inCalmClear
9:30 AM66.2 °F53.6 °F64 %30.09 inCalmClear
10:00 AM68.0 °F51.8 °F56 %30.09 inVariable1.2 mphClear
10:30 AM68.0 °F53.6 °F60 %30.09 inWNW (290°)3.5 mphClear
11:00 AM71.6 °F51.8 °F50 %30.09 inCalmClear
11:30 AM73.4 °F55.4 °F53 %30.09 inVariable1.2 mphClear
12:00 PM73.4 °F60.8 °F65 %30.12 inVariable3.5 mphClear
12:30 PM71.6 °F59.0 °F64 %30.12 in6.2 miSE (140°)5.8 mphPartly Cloudy
1:00 PM73.4 °F59.0 °F61 %30.12 in6.2 miESE (110°)4.6 mphPartly Cloudy
1:30 PM73.4 °F59.0 °F61 %30.09 in6.2 miNW (310°)9.2 mphPartly Cloudy
2:00 PM71.6 °F59.0 °F64 %30.09 in6.2 miWNW (300°)6.9 mphPartly Cloudy
2:30 PM73.4 °F59.0 °F61 %30.06 in6.2 miVariable2.3 mphPartly Cloudy
3:00 PM71.6 °F59.0 °F64 %30.06 in6.2 miSE (140°)8.1 mphPartly Cloudy
3:30 PM71.6 °F60.8 °F69 %30.06 in6.2 miESE (120°)4.6 mphPartly Cloudy
4:00 PM73.4 °F59.0 °F61 %30.06 in6.2 miNW (320°)11.5 mphPartly Cloudy
4:30 PM71.6 °F59.0 °F64 %30.06 in6.2 miWNW (300°)9.2 mphPartly Cloudy
5:00 PM71.6 °F59.0 °F64 %30.06 inWNW (300°)8.1 mphClear
5:30 PM71.6 °F60.8 °F69 %30.06 in6.2 miNW (320°)9.2 mphPartly Cloudy
6:00 PM69.8 °F59.0 °F68 %30.06 in6.2 miWNW (300°)11.5 mphPartly Cloudy
6:30 PM68.0 °F59.0 °F73 %30.06 inWNW (290°)9.2 mphClear
7:00 PM68.0 °F59.0 °F73 %30.09 inWNW (300°)8.1 mphClear
7:30 PM66.2 °F59.0 °F78 %30.09 inWNW (300°)11.5 mphClear
8:00 PM64.4 °F59.0 °F83 %30.09 inWNW (290°)9.2 mphClear
8:30 PM64.4 °F57.2 °F77 %30.09 inWest (280°)8.1 mphClear
9:00 PM64.4 °F55.4 °F73 %30.09 inWest (280°)9.2 mphClear
9:30 PM64.4 °F55.4 °F73 %30.09 inWest (270°)6.9 mphClear
10:00 PM64.4 °F55.4 °F73 %30.12 inWest (270°)9.2 mphClear
Hourly data recorded from GCXO, located miles away from Santa Cruz de Tenerife, Spain







STORIES FROM OUR PARTNERS